Location: Newark
(35.6799°N, 139.7636°E)
Time: 19:07:16
(UTC+00:00)

Courier 1B Rocket - Pass Details

Date: 15 December 2019
Orbit: 920 x 1202 km, 28.2° (Epoch: 28 January)

Event Time Altitude Azimuth Distance (km) Brightness Sun altitude
Exits shadow 17:28:15 12° 113° (ESE) 2,788 7.7 -50.9°
Drops below altitude 10° 17:28:59 10° 109° (ESE) 2,956 7.9 -50.7°
Sets 17:32:20 0° 95° (E) 3,864 8.8 -50.1°
